Regional Weather Roundup
Issued by NWS Jackson, KY

Home | Current Version | Previous Version | Graphics & Text | Print | Product List | Glossary On
Versions: 1 2 3 4 5 6 7 8 9 10 11 12 13 14 15 16 17 18 19 20 21 22 23 24 25 26 27 28 29 30 31 32 33 34 35 36 37 38 39 40 41 42 43 44 45 46 47 48 49 50
000
ASUS43 KJKL 301710
RWRJKL

EAST KENTUCKY HOURLY WEATHER ROUNDUP
NATIONAL WEATHER SERVICE JACKSON KY
100 PM EDT SAT AUG 30 2014

NOTE: "FAIR" INDICATES FEW OR NO CLOUDS BELOW 12,000 FEET WITH
NO SIGNIFICANT WEATHER AND/OR OBSTRUCTIONS TO VISIBILITY.

* THESE REPORTS ARE NOT UNDER NWS QUALITY CONTROL AND MAY NOT
  REPORT WEATHER SUCH AS PRECIPITATION AND FOG.

KYZ079-080-083-085-087-088-110-112-115-119-120-301800
...EASTERN KENTUCKY...

CITY           SKY/WX    TMP DP  RH WIND       PRES   REMARKS
JACKSON        MOSUNNY   85  68  56 VRB6      30.15S
LONDON         MOSUNNY   87  64  46 S8        30.14F
SOMERSET*      MOSUNNY   84  64  51 S9        30.13F
MONTICELLO*    PTSUNNY   87  70  57 S7        30.14S HX  92
WILLIAMSBURG*  SUNNY     84  68  58 S8        30.14F
MIDDLESBORO*   MOSUNNY   87  67  50 S7        30.16S
HARLAN APT*    SUNNY     88  61  40 MISG      30.17F
HAZARD APT*    PTSUNNY   86  66  51 SW7       30.15S
BLACK MTN*       N/A     77  63  61 S1          N/A
PIKEVILLE APT* SUNNY     84  68  58 SE3       30.16S
BIG SANDY*     SUNNY     87  70  56 S7        30.14F HX  92
MOREHEAD APT*  MOSUNNY   86  66  51 SW10G16   30.13F
$$

KYZ035-036-041-042-044-050-067-078-099-301800
...CENTRAL KENTUCKY...

CITY           SKY/WX    TMP DP  RH WIND       PRES   REMARKS
MT STERLING*   MOSUNNY   86  66  51 SW12G18   30.13S
FLEMING/MASON* MOSUNNY   88  68  51 SW12      30.10S HX  91
DANVILLE*      PTSUNNY   86  68  54 S8        30.12S
RICHMOND*      PTSUNNY   88  63  42 S9        30.11F
LEXINGTON      MOSUNNY   88  67  49 SW10      30.10F HX  91
FRANKFORT      PTSUNNY   86  68  54 SW9       30.07F
$$

KYZ091>093-OHZ055-061-077-WVZ005-015-034-035-042-301800
...SOUTHERN OHIO/WEST VIRGINIA...

CITY           SKY/WX    TMP DP  RH WIND       PRES   REMARKS
COVINGTON      PTSUNNY   83  66  56 S9        30.07F
COLUMBUS       PTSUNNY   90  60  36 SW16      30.05F
DAYTON         PTSUNNY   83  67  58 SW12      30.07S
WILMINGTON     SUNNY     85  66  53 SW13      30.07S
HUNTINGTON     MOSUNNY   86  69  56 SW6       30.10F HX  90
CHARLESTON     MOSUNNY   88  66  48 SW10G17   30.12F HX  90
PINEVILLE*     SUNNY     89  72  57 MISG      30.24S HX  95
BECKLEY        MOSUNNY   83  62  49 S7        30.24F
BLUEFIELD      PTSUNNY   84  62  47 S8        30.27F
$$

VAZ002-007-008-TNZ017-027-036-066-071-301800
...SOUTHWEST VIRGINIA/EAST TENNESSEE...

CITY           SKY/WX    TMP DP  RH WIND       PRES   REMARKS
WISE*          SUNNY     81  61  50 SE6       30.26F
JONESVILLE*      N/A     86  68  54 CALM      30.19F
ABINGDON*      SUNNY     86  63  46 SW3       30.23F
BRISTOL        MOSUNNY   88  60  38 S3        30.18F
KNOXVILLE      PTSUNNY   87  68  52 W7        30.13F HX  90
OAK RIDGE      MOSUNNY   87  66  49 CALM      30.16F
CROSSVILLE     CLOUDY    80  65  59 S7        30.19F
NASHVILLE      CLOUDY    81  69  67 CALM      30.10S
$$

...KEY TO REMARKS...
VSB - VISIBILITY IN MILES
WCI - WIND CHILL INDEX
HX  - HEAT INDEX

$$


USA.gov is the U.S. government's official web portal to all federal, state and local government web resources and services.